Location: Newark
(41.4981°N, 44.1297°E)
Time: 02:21:28
(UTC+00:00)

Envisat - Visible Passes

Search period start: 13 December 2019 00:00
Search period end: 23 December 2019 00:00
Orbit: 764 x 766 km, 98.1° (Epoch: 12 December)

Date Brightness Start Highest point End Pass type
(mag) Time Alt. Az. Time Alt. Az. Time Alt. Az.
13 Dec 5.7 02:51:58 10° NE 02:55:50 21° E 02:59:41 10° SE visible
13 Dec 3.8 14:06:32 10° SE 14:10:52 29° ENE 14:15:12 10° N visible
13 Dec 4.7 15:45:12 10° SSW 15:49:46 33° W 15:54:22 10° NNW visible
14 Dec 3.2 15:07:49 10° S 15:12:52 75° WSW 15:17:59 10° NNW visible
15 Dec 4.7 03:16:48 10° NNE 03:21:31 37° E 03:26:11 10° SSE visible
15 Dec 3.2 14:31:19 10° SE 14:36:11 49° ENE 14:41:05 10° N visible
15 Dec 5.6 16:11:52 10° SW 16:15:28 19° W 16:19:05 10° NW visible
16 Dec 5.9 02:41:11 10° NE 02:44:27 17° E 02:47:42 10° SE visible
16 Dec 4.2 15:33:38 10° S 15:38:26 42° W 15:43:16 10° NNW visible
17 Dec 3.5 03:42:01 10° NNE 03:47:06 66° ESE 03:52:08 10° S visible
17 Dec 2.9 14:56:31 10° SSE 15:01:35 86° E 15:06:42 10° NNW visible
17 Dec 6.2 16:40:19 10° W 16:41:16 10° W 16:42:12 10° WNW visible
18 Dec 5.1 03:05:44 10° NE 03:10:10 29° E 03:14:34 10° SSE visible
18 Dec 3.4 14:20:16 10° SE 14:24:57 39° ENE 14:29:40 10° N visible
18 Dec 5.2 16:00:00 10° SSW 16:04:05 24° W 16:08:12 10° NW visible
19 Dec 6.1 02:30:40 10° ENE 02:33:02 13° E 02:35:25 10° ESE visible
19 Dec 3.7 15:22:09 10° S 15:27:07 54° W 15:32:06 10° NNW visible
20 Dec 4.0 03:30:49 10° NNE 03:35:47 52° E 03:40:43 10° S visible
20 Dec 2.9 14:45:18 10° SSE 14:50:20 69° ENE 14:55:24 10° N visible
20 Dec 6.0 16:27:17 10° WSW 16:29:50 14° W 16:32:23 10° WNW visible
21 Dec 5.5 02:54:45 10° NE 02:58:48 23° E 03:02:49 10° SSE visible
21 Dec 3.7 14:09:18 10° SE 14:13:45 32° ENE 14:18:12 10° N visible
21 Dec 4.9 15:48:16 10° SSW 15:52:43 31° W 15:57:12 10° NW visible
22 Dec 3.1 03:56:12 10° NNE 04:01:18 89° WNW 04:06:23 10° SSW visible
22 Dec 3.3 15:10:46 10° S 15:15:48 69° WSW 15:20:54 10° NNW visible
